Location: Unspecified
(0.0000°N, 0.0000°E)
Time: 17:48:33
(UTC+00:00)

STARLINK 1056 - Pass Details

Date: 18 January 2020
Orbit: 548 x 551 km, 53.0° (Epoch: 17 January)

Event Time Altitude Azimuth Distance (km) Brightness Sun altitude
Rises 18:49:34 0° 304° (NW) 2,701 7.7 -9.2°
Reaches altitude 10° 18:52:06 10° 290° (WNW) 1,811 7.0 -9.8°
Maximum altitude 18:55:27 24° 236° (SW) 1,156 6.3 -10.5°
Drops below altitude 10° 18:58:49 10° 181° (S) 1,818 6.6 -11.3°
Sets 19:01:22 0° 167° (SSE) 2,714 7.3 -11.9°
